When you browse on this site, cookies collect data to enhance your experience and personalize the content and advertising you see.
Visit our Privacy Policy to learn more. By continuing to use the site, you agree to this use of cookies and data.
  • In Germany
  • List of Countries
  • For 7 days
  • Water Temperature
  • Weather Map
  • Weather Widgets
  • user-avatar
    Login

    Hourly Weather Ondjiwa

    Today, 17 November, Sunday

    Time Temperature Precipitation Wind Pressure Humidity
    00:00 +27°C° 0 mm 3 mps 664 mmHg 19%
    01:00 +26°C° 0 mm 2 mps 664 mmHg 21%
    02:00 +25°C° 0 mm 2 mps 664 mmHg 22%
    03:00 +24°C° 0 mm 2 mps 664 mmHg 22%
    04:00 +24°C° 0 mm 2 mps 664 mmHg 23%
    05:00 +25°C° 0 mm 2 mps 664 mmHg 22%
    06:00 +25°C° 0 mm 3 mps 665 mmHg 21%
    07:00 +26°C° 0 mm 3 mps 666 mmHg 20%
    08:00 +29°C° 0 mm 3 mps 666 mmHg 17%
    09:00 +31°C° 0 mm 3 mps 666 mmHg 13%
    10:00 +35°C° 0 mm 4 mps 666 mmHg 10%
    11:00 +36°C° 0 mm 4 mps 666 mmHg 10%
    12:00 +37°C° 0 mm 4 mps 665 mmHg 10%
    13:00 +38°C° 0 mm 4 mps 665 mmHg 9%
    14:00 +37°C° 0 mm 4 mps 664 mmHg 10%
    15:00 +37°C° 0 mm 4 mps 664 mmHg 11%
    16:00 +36°C° 0 mm 3 mps 663 mmHg 11%
    17:00 +35°C° 0 mm 2 mps 663 mmHg 12%
    18:00 +34°C° 0 mm 2 mps 664 mmHg 13%
    19:00 +32°C° 0 mm 1 mps 664 mmHg 15%
    20:00 +31°C° 0 mm 2 mps 665 mmHg 18%
    21:00 +30°C° 0 mm 3 mps 665 mmHg 21%
    22:00 +28°C° 0 mm 5 mps 665 mmHg 25%
    23:00 +27°C° 0 mm 5 mps 665 mmHg 25%

    Tomorrow, 18 November, Monday

    Time Temperature Precipitation Wind Pressure Humidity
    00:00 +26°C° 0 mm 5 mps 665 mmHg 25%
    01:00 +25°C° 0 mm 4 mps 665 mmHg 25%
    02:00 +23°C° 0 mm 4 mps 665 mmHg 25%
    03:00 +24°C° 0 mm 3 mps 664 mmHg 25%
    04:00 +23°C° 0 mm 2 mps 664 mmHg 26%
    05:00 +23°C° 0 mm 2 mps 665 mmHg 27%
    06:00 +24°C° 0 mm 2 mps 666 mmHg 29%
    07:00 +25°C° 0 mm 2 mps 666 mmHg 30%
    08:00 +27°C° 0 mm 3 mps 667 mmHg 24%
    09:00 +29°C° 0 mm 3 mps 667 mmHg 18%
    10:00 +33°C° 0 mm 3 mps 667 mmHg 12%
    11:00 +34°C° 0 mm 3 mps 667 mmHg 12%
    12:00 +35°C° 0 mm 3 mps 667 mmHg 12%
    13:00 +36°C° 0 mm 4 mps 666 mmHg 12%
    14:00 +36°C° 0 mm 3 mps 666 mmHg 12%
    15:00 +36°C° 0 mm 3 mps 665 mmHg 13%
    16:00 +36°C° 0 mm 3 mps 665 mmHg 13%
    17:00 +35°C° 0 mm 2 mps 665 mmHg 15%
    18:00 +32°C° 0 mm 2 mps 665 mmHg 17%
    19:00 +30°C° 0 mm 2 mps 665 mmHg 20%
    20:00 +29°C° 0 mm 2 mps 665 mmHg 21%
    21:00 +28°C° 0 mm 3 mps 665 mmHg 22%
    22:00 +27°C° 0 mm 4 mps 666 mmHg 24%
    23:00 +26°C° 0 mm 4 mps 666 mmHg 24%

    Day after tomorrow, 19 November, Tuesday

    Time Temperature Precipitation Wind Pressure Humidity
    00:00 +25°C° 0 mm 4 mps 666 mmHg 25%
    01:00 +25°C° 0 mm 4 mps 665 mmHg 25%
    02:00 +24°C° 0 mm 3 mps 665 mmHg 27%
    03:00 +22°C° 0 mm 3 mps 665 mmHg 29%
    04:00 +21°C° 0 mm 2 mps 665 mmHg 31%
    05:00 +23°C° 0 mm 2 mps 666 mmHg 28%
    06:00 +24°C° 0 mm 2 mps 666 mmHg 25%
    07:00 +25°C° 0 mm 2 mps 667 mmHg 22%
    08:00 +27°C° 0 mm 2 mps 667 mmHg 18%
    09:00 +29°C° 0 mm 2 mps 668 mmHg 14%
    10:00 +31°C° 0 mm 3 mps 668 mmHg 10%
    11:00 +33°C° 0 mm 3 mps 668 mmHg 10%
    12:00 +34°C° 0 mm 3 mps 667 mmHg 10%
    13:00 +35°C° 0 mm 3 mps 667 mmHg 10%
    14:00 +36°C° 0 mm 3 mps 666 mmHg 11%
    15:00 +36°C° 0 mm 3 mps 666 mmHg 12%
    16:00 +36°C° 0 mm 2 mps 665 mmHg 12%
    17:00 +34°C° 0 mm 2 mps 665 mmHg 14%
    18:00 +31°C° 0 mm 2 mps 665 mmHg 16%
    19:00 +30°C° 0 mm 1 mps 665 mmHg 18%
    20:00 +29°C° 0 mm 2 mps 665 mmHg 18%
    21:00 +28°C° 0 mm 2 mps 665 mmHg 18%
    22:00 +27°C° 0 mm 3 mps 666 mmHg 18%
    23:00 +26°C° 0 mm 3 mps 665 mmHg 20%

    20 November, Wednesday

    Time Temperature Precipitation Wind Pressure Humidity
    00:00 +25°C° 0 mm 3 mps 665 mmHg 21%
    01:00 +24°C° 0 mm 3 mps 665 mmHg 23%
    02:00 +22°C° 0 mm 3 mps 665 mmHg 25%
    03:00 +21°C° 0 mm 2 mps 665 mmHg 26%
    04:00 +21°C° 0 mm 2 mps 664 mmHg 28%
    05:00 +23°C° 0 mm 2 mps 665 mmHg 24%
    06:00 +24°C° 0 mm 2 mps 666 mmHg 21%
    07:00 +25°C° 0 mm 2 mps 667 mmHg 17%
    08:00 +27°C° 0 mm 2 mps 667 mmHg 15%
    09:00 +29°C° 0 mm 2 mps 668 mmHg 12%
    10:00 +32°C° 0 mm 2 mps 668 mmHg 9%
    11:00 +34°C° 0 mm 2 mps 667 mmHg 9%
    12:00 +35°C° 0 mm 2 mps 667 mmHg 9%
    13:00 +36°C° 0 mm 2 mps 666 mmHg 9%
    14:00 +36°C° 0 mm 2 mps 666 mmHg 10%
    15:00 +36°C° 0 mm 2 mps 665 mmHg 10%
    16:00 +36°C° 0 mm 2 mps 664 mmHg 11%
    17:00 +34°C° 0 mm 2 mps 664 mmHg 13%
    18:00 +32°C° 0 mm 2 mps 664 mmHg 15%
    19:00 +30°C° 0 mm 1 mps 664 mmHg 16%
    20:00 +29°C° 0 mm 3 mps 665 mmHg 17%
    21:00 +28°C° 0 mm 5 mps 665 mmHg 18%
    22:00 +28°C° 0 mm 6 mps 666 mmHg 19%
    23:00 +27°C° 0 mm 5 mps 665 mmHg 21%

    21 November, Thursday

    Time Temperature Precipitation Wind Pressure Humidity
    00:00 +26°C° 0 mm 4 mps 665 mmHg 23%
    01:00 +25°C° 0 mm 4 mps 665 mmHg 25%
    02:00 +24°C° 0 mm 3 mps 665 mmHg 27%
    03:00 +23°C° 0 mm 2 mps 665 mmHg 29%
    04:00 +22°C° 0 mm 1 mps 665 mmHg 32%
    05:00 +23°C° 0 mm 1 mps 665 mmHg 30%
    06:00 +24°C° 0 mm 1 mps 666 mmHg 29%
    07:00 +25°C° 0 mm 1 mps 667 mmHg 27%
    08:00 +27°C° 0 mm 1 mps 667 mmHg 23%
    09:00 +30°C° 0 mm 1 mps 667 mmHg 20%
    10:00 +32°C° 0 mm 1 mps 668 mmHg 16%
    11:00 +34°C° 0 mm 2 mps 667 mmHg 15%
    12:00 +36°C° 0 mm 2 mps 667 mmHg 14%
    13:00 +37°C° 0 mm 2 mps 666 mmHg 13%
    14:00 +37°C° 0 mm 2 mps 666 mmHg 13%
    15:00 +37°C° 0 mm 2 mps 665 mmHg 13%
    16:00 +37°C° 0 mm 2 mps 665 mmHg 13%
    17:00 +35°C° 0 mm 2 mps 665 mmHg 14%
    18:00 +32°C° 0 mm 2 mps 665 mmHg 16%
    19:00 +30°C° 0 mm 1 mps 665 mmHg 18%
    20:00 +30°C° 0 mm 3 mps 665 mmHg 19%
    21:00 +29°C° 0 mm 4 mps 665 mmHg 20%
    22:00 +28°C° 0 mm 6 mps 666 mmHg 21%
    23:00 +27°C° 0 mm 5 mps 666 mmHg 23%

    22 November, Friday

    Time Temperature Precipitation Wind Pressure Humidity
    00:00 +26°C° 0 mm 4 mps 665 mmHg 24%
    01:00 +25°C° 0 mm 3 mps 665 mmHg 26%
    02:00 +24°C° 0 mm 3 mps 665 mmHg 28%
    03:00 +23°C° 0 mm 2 mps 665 mmHg 31%
    04:00 +21°C° 0 mm 2 mps 665 mmHg 33%
    05:00 +23°C° 0 mm 2 mps 666 mmHg 30%
    06:00 +24°C° 0 mm 1 mps 666 mmHg 28%
    07:00 +25°C° 0 mm 1 mps 667 mmHg 25%
    08:00 +28°C° 0 mm 2 mps 668 mmHg 21%
    09:00 +30°C° 0 mm 2 mps 668 mmHg 16%
    10:00 +32°C° 0 mm 2 mps 668 mmHg 12%
    11:00 +35°C° 0 mm 2 mps 668 mmHg 11%
    12:00 +36°C° 0 mm 2 mps 667 mmHg 10%
    13:00 +37°C° 0 mm 3 mps 667 mmHg 10%
    14:00 +37°C° 0 mm 3 mps 666 mmHg 10%
    15:00 +38°C° 0 mm 3 mps 665 mmHg 10%
    16:00 +38°C° 0 mm 3 mps 665 mmHg 10%
    17:00 +36°C° 0 mm 3 mps 664 mmHg 12%
    18:00 +34°C° 0 mm 3 mps 664 mmHg 13%
    19:00 +30°C° 0 mm 3 mps 664 mmHg 15%
    20:00 +30°C° 0 mm 3 mps 664 mmHg 15%
    21:00 +29°C° 0 mm 3 mps 665 mmHg 16%
    22:00 +29°C° 0 mm 3 mps 665 mmHg 17%
    23:00 +28°C° 0 mm 3 mps 665 mmHg 20%
    Show more